Location: Waco, TX
(31.5480°N, 97.1670°W)
Time: 01:16:48
(UTC-06:00)

ISS - Pass Details

Date: 01 February 2021
Orbit: 417 x 422 km, 51.6° (Epoch: 09 March)

Event Time Altitude Azimuth Distance (km) Brightness Sun altitude
Rises 21:18:41 0° 310° (NW) 2,370 - -41.7°
Reaches altitude 10° 21:20:49 10° 305° (NW) 1,503 - -42.2°
Maximum altitude 21:24:06 52° 228° (SW) 527 - -42.9°
Drops below altitude 10° 21:27:23 10° 151° (SSE) 1,494 - -43.6°
Sets 21:29:30 0° 146° (SE) 2,354 - -44.0°
